[[{"header":{"parameterUnit":"m.s-1","parameterCategory":2,"la1":30.2991,"la2":30.254,"lo1":-89.0895,"lo2":-89.0444,"dy":0.0017,"dx":0.0017,"nx":28,"ny":28,"refTime":"2025-07-14T09:00:00:Z","depth":"0","parameterNumber":2,"parameterNumberName":"U-component_of_CURRENTS"},"data":[0,0,0,0,0,0,0,0,0,0,0,0,0,0,0,0,0,0,0,0,0,0,0,0,0,0,0,0,0,0,0,0,0,0,0,0,0,0,0,0,0,0,0,0,0,0,0,0,0,0,0,0,0,0,0,0,0,0,0.196,0.196,0,0.2021,0.2022,0.2024,0.2128,0.2129,0.213,0.2131,0.2213,0.2214,0.2215,0,0,0,0,0,0,0,0,0,0,0,0,0,0.198,0.1979,0.196,0.196,0.196,0.2021,0.2022,0.2024,0.2128,0.2129,0.2131,0.2132,0.2212,0.2214,0.2215,0,0,0,0,0,0,0,0,0,0,0,0,0,0.2008,0.1979,0.1961,0.2012,0.2017,0.202,0.2022,0.2025,0.2128,0.2129,0.2131,0.2132,0.2212,0.2214,0.2215,0.2194,0,0,0.2221,0.2222,0,0,0,0,0,0,0,0,0.2006,0.2008,0.2005,0.2009,0.2014,0.206,0.2059,0.2079,0.2127,0.2096,0.2131,0.2133,0.2156,0.2163,0.2184,0.2198,0.2201,0.2221,0.2222,0.2223,0.2223,0,0,0,0,0,0,0,0.2004,0.2006,0.1994,0.2004,0.201,0.2047,0.2053,0.2064,0.2124,0.2099,0.2104,0.2095,0.216,0.2182,0.2186,0.2202,0.2221,0.2222,0.2224,0.2224,0.2248,0.2248,0,0,0,0,0,0,0.1973,0.2004,0.1992,0.1995,0.2003,0.2044,0.2052,0.2051,0.2124,0.2133,0.2093,0.2099,0.2178,0.2184,0.219,0.22,0.2223,0.2224,0.2225,0.2249,0.2248,0.2248,0,0,0,0,0,0,0.1973,0.1971,0.199,0.1993,0.1997,0.2041,0.204,0.2052,0.2073,0.2118,0.213,0.2102,0.218,0.2187,0.2206,0.2203,0.2225,0.2227,0.2249,0.2248,0.2248,0.22,0,0,0,0,0,0,0.1974,0.1972,0.1969,0.1991,0.1995,0.1995,0.2038,0.2051,0.206,0.2069,0.2128,0.2138,0.2182,0.2203,0.2208,0.2205,0.2228,0.225,0.2249,0.2248,0.2202,0.2197,0.2194,0,0,0,0,0,0.1974,0.195,0.1968,0.1967,0.1987,0.1993,0.2001,0.2044,0.2058,0.207,0.2108,0.2136,0.2202,0.2204,0.2209,0.2208,0.225,0.2249,0.2248,0.2203,0.2198,0.2194,0,0,0,0,0,0,0.1947,0.1958,0.1979,0.1958,0.1977,0.2008,0.2002,0.203,0.2069,0.2074,0.2126,0.2138,0.2157,0.218,0.2181,0.2212,0.2232,0.2232,0.2196,0.2191,0.2187,0.217,0.223,0,0,0,0,0,0.1937,0.1935,0.195,0.1937,0.1932,0.1965,0.1972,0.2003,0.203,0.205,0.2089,0.2125,0.2155,0.2171,0.2202,0.2207,0.2222,0.2211,0.2207,0.2203,0.2193,0.2218,0.2215,0.2245,0.2245,0.2245,0,0,0.1923,0.1925,0.1927,0.1932,0.1942,0.1943,0.1976,0.1976,0.1996,0.2047,0.2077,0.2109,0.2152,0.2176,0.2185,0.2195,0.2201,0.2202,0.2199,0.219,0.2217,0.2214,0.2211,0.2244,0.2244,0.2244,0,0,0.1879,0.1889,0.187,0.1884,0.189,0.1915,0.1908,0.1937,0.1968,0.1992,0.2038,0.2059,0.2105,0.214,0.2161,0.2143,0.2178,0.2157,0.2124,0.2149,0.2147,0.2145,0.215,0.2149,0.2157,0.2156,0.2156,0,0.1855,0.1849,0.1865,0.1851,0.1861,0.1895,0.1889,0.1917,0.196,0.1974,0.1997,0.2054,0.2088,0.2112,0.2117,0.2133,0.215,0.214,0.2143,0.2142,0.2141,0.2147,0.2147,0.2154,0.2154,0.2155,0.2155,0,0.1814,0.181,0.1789,0.1799,0.1814,0.1811,0.1846,0.1864,0.1896,0.1931,0.1958,0.2004,0.2039,0.2054,0.2083,0.2092,0.2107,0.2135,0.2154,0.2135,0.2143,0.2143,0.215,0.2151,0.2152,0.2153,0,0,0.175,0.176,0.1756,0.1766,0.1794,0.1802,0.1816,0.1844,0.1848,0.1895,0.1905,0.1954,0.1973,0.1996,0.2032,0.2052,0.2057,0.2088,0.209,0.2089,0.2102,0.205,0.2046,0.2094,0.2094,0.2094,0.2105,0,0.1713,0.1689,0.1715,0.1716,0.1707,0.1756,0.1767,0.1803,0.1835,0.1852,0.1894,0.1917,0.1955,0.1966,0.1992,0.2046,0.2058,0.205,0.2123,0.2124,0.2078,0.2044,0.1946,0.1943,0.2106,0.2106,0.2106,0,0.1667,0.1663,0.1651,0.1682,0.1681,0.1691,0.1723,0.1745,0.1774,0.1794,0.1819,0.1856,0.1887,0.1922,0.199,0.1988,0.2033,0.2071,0.2074,0.2041,0.2073,0.1991,0.1938,0.1808,0.2107,0.2107,0.2107,0,0.1623,0.1625,0.1623,0.1634,0.1662,0.1667,0.1689,0.1718,0.1729,0.1754,0.1754,0.1805,0.1822,0.1891,0.1962,0.1986,0.203,0.2077,0.2066,0.2063,0.1999,0.1989,0.1823,0.2112,0.2112,0.2112,0.2112,0,0.1579,0.1572,0.1599,0.1595,0.1596,0.1631,0.1629,0.1651,0.1665,0.1666,0.1718,0.1719,0.1817,0.1858,0.1937,0.1985,0.2011,0.2041,0.2058,0.1977,0.1966,0.1868,0.1849,0.2113,0.2113,0.2113,0.2113,0,0.1515,0.1536,0.1529,0.1556,0.157,0.1567,0.1595,0.1585,0.1605,0.1603,0.1607,0.1654,0.1703,0.1783,0.1881,0.1933,0.1934,0.2009,0.1891,0.1892,0.1766,0.175,0.1662,0.1659,0.2003,0.2002,0.2,0,0.1478,0.1466,0.1494,0.1495,0.1503,0.1512,0.1512,0.1547,0.1538,0.1563,0.1551,0.1588,0.161,0.1707,0.1795,0.1886,0.1857,0.184,0.1864,0.1713,0.171,0.1708,0.1713,0.1762,0.1759,0.1756,0.1754,0,0.1397,0.1406,0.14,0.1415,0.1421,0.1431,0.1435,0.1426,0.1458,0.1453,0.1457,0.1479,0.1555,0.1584,0.1674,0.1739,0.1722,0.1793,0.1672,0.1518,0.1472,0.1492,0.1791,0.1733,0.1735,0.1737,0.1738,0.1739,0.1326,0.1302,0.1305,0.1319,0.1334,0.1337,0.1321,0.1329,0.1319,0.1296,0.1353,0.1334,0.1362,0.1479,0.1529,0.1469,0.1595,0.1443,0.1442,0.1457,0.1418,0.165,0.1592,0.1593,0.1594,0.1595,0.1596,0,0.1211,0.1209,0.1215,0.1223,0.1218,0.1259,0.1254,0.1221,0.1192,0.1187,0.1179,0.1117,0.1108,0.1135,0.1113,0.1089,0.1154,0.1063,0.1012,0.105,0.1259,0.1206,0.1017,0.1018,0.1018,0.1018,0.1018,0.1018,0.1141,0.1103,0.1117,0.1101,0.1119,0.1079,0.1064,0.1039,0.1018,0.0934,0.0871,0.0871,0.0799,0.0702,0.0619,0.0666,0.0666,0.0673,0.0737,0.0814,0.0848,0.0881,0.082,0.0554,0.0553,0.0498,0.0497,0.0496]},{"header":{"parameterUnit":"m.s-1","parameterCategory":2,"la1":30.2991,"la2":30.254,"lo1":-89.0895,"lo2":-89.0444,"dy":0.0017,"dx":0.0017,"nx":28,"ny":28,"refTime":"2025-07-14T09:00:00:Z","depth":"0","parameterNumber":3,"parameterNumberName":"V-component_of_CURRENTS"},"data":[0,0,0,0,0,0,0,0,0,0,0,0,0,0,0,0,0,0,0,0,0,0,0,0,0,0,0,0,0,0,0,0,0,0,0,0,0,0,0,0,0,0,0,0,0,0,0,0,0,0,0,0,0,0,0,0,0,0,-0.0495,-0.0495,0,-0.05,-0.05,-0.0501,-0.0526,-0.0527,-0.0527,-0.0527,-0.0553,-0.0553,-0.0554,0,0,0,0,0,0,0,0,0,0,0,0,0,-0.0471,-0.0472,-0.0495,-0.0495,-0.0494,-0.05,-0.05,-0.0501,-0.0526,-0.0527,-0.0527,-0.0528,-0.0553,-0.0553,-0.0554,0,0,0,0,0,0,0,0,0,0,0,0,0,-0.0482,-0.0472,-0.0495,-0.0506,-0.0507,-0.05,-0.05,-0.0501,-0.0526,-0.0527,-0.0527,-0.0528,-0.0553,-0.0553,-0.0554,-0.0546,0,0,-0.0555,-0.0556,0,0,0,0,0,0,0,0,-0.0481,-0.0483,-0.0504,-0.0505,-0.0506,-0.0511,-0.0501,-0.0516,-0.0526,-0.0522,-0.0527,-0.0528,-0.0539,-0.054,-0.0544,-0.0548,-0.0549,-0.0555,-0.0556,-0.0556,-0.0556,0,0,0,0,0,0,0,-0.0481,-0.0483,-0.05,-0.0504,-0.0505,-0.0498,-0.0501,-0.0504,-0.053,-0.0522,-0.0523,-0.0519,-0.054,-0.0543,-0.0545,-0.0549,-0.0555,-0.0556,-0.0556,-0.0556,-0.054,-0.0539,0,0,0,0,0,0,-0.0476,-0.0482,-0.0499,-0.0499,-0.0492,-0.0498,-0.0501,-0.0511,-0.0529,-0.0531,-0.0519,-0.052,-0.0542,-0.0544,-0.0546,-0.0538,-0.0556,-0.0556,-0.0557,-0.054,-0.0539,-0.0539,0,0,0,0,0,0,-0.0476,-0.0478,-0.0499,-0.0488,-0.049,-0.0498,-0.0508,-0.0511,-0.0513,-0.0526,-0.0529,-0.0519,-0.0542,-0.0545,-0.0549,-0.0539,-0.0557,-0.0557,-0.0541,-0.054,-0.0539,-0.0522,0,0,0,0,0,0,-0.0475,-0.0478,-0.0483,-0.0488,-0.049,-0.0492,-0.0508,-0.051,-0.0509,-0.0511,-0.0527,-0.053,-0.0543,-0.0548,-0.0549,-0.054,-0.0558,-0.0542,-0.0541,-0.0539,-0.0524,-0.0521,-0.0518,0,0,0,0,0,-0.0475,-0.0477,-0.0484,-0.0485,-0.0498,-0.0491,-0.0492,-0.05,-0.0508,-0.0506,-0.0519,-0.0529,-0.054,-0.0548,-0.055,-0.054,-0.0543,-0.0541,-0.054,-0.0525,-0.0521,-0.0518,0,0,0,0,0,0,-0.0464,-0.048,-0.0487,-0.0494,-0.0491,-0.0494,-0.0492,-0.0496,-0.0504,-0.0507,-0.0524,-0.0528,-0.0526,-0.0532,-0.0541,-0.0529,-0.054,-0.0539,-0.0529,-0.0525,-0.0523,-0.0519,-0.0558,0,0,0,0,0,-0.0464,-0.0476,-0.048,-0.0483,-0.0482,-0.0486,-0.0484,-0.0487,-0.0493,-0.0498,-0.0509,-0.0516,-0.0519,-0.0523,-0.0526,-0.0522,-0.0515,-0.0515,-0.0512,-0.0509,-0.0506,-0.0482,-0.0477,-0.0533,-0.0533,-0.0533,0,0,-0.0458,-0.0469,-0.0474,-0.0481,-0.0482,-0.0481,-0.0487,-0.048,-0.0481,-0.0498,-0.0504,-0.0507,-0.0515,-0.0513,-0.0511,-0.0518,-0.0489,-0.0507,-0.0505,-0.0503,-0.048,-0.0475,-0.047,-0.0532,-0.0532,-0.0532,0,0,-0.0446,-0.0463,-0.0466,-0.0467,-0.0465,-0.0469,-0.0465,-0.0467,-0.0471,-0.047,-0.0482,-0.0478,-0.0487,-0.0489,-0.0492,-0.0472,-0.0474,-0.0471,-0.0457,-0.0434,-0.043,-0.0425,-0.0408,-0.0402,-0.0471,-0.0471,-0.0471,0,-0.0436,-0.045,-0.0461,-0.0461,-0.0464,-0.0464,-0.0463,-0.0462,-0.0465,-0.0464,-0.047,-0.0467,-0.0474,-0.0467,-0.0463,-0.0466,-0.0455,-0.0473,-0.0431,-0.0427,-0.0423,-0.0406,-0.04,-0.047,-0.0471,-0.0471,-0.0471,0,-0.0431,-0.0438,-0.0437,-0.0449,-0.045,-0.0447,-0.0449,-0.0446,-0.0449,-0.0448,-0.0437,-0.044,-0.0439,-0.0436,-0.0447,-0.0422,-0.0424,-0.043,-0.0441,-0.0416,-0.04,-0.0394,-0.0469,-0.0469,-0.047,-0.047,0,0,-0.0415,-0.0432,-0.0432,-0.0439,-0.0448,-0.0447,-0.0444,-0.0442,-0.0435,-0.0429,-0.0417,-0.0415,-0.0409,-0.0411,-0.0414,-0.0395,-0.036,-0.0401,-0.04,-0.0386,-0.031,-0.0299,-0.0292,-0.0359,-0.0357,-0.0357,-0.031,0,-0.0407,-0.0418,-0.0426,-0.0429,-0.0437,-0.0441,-0.0438,-0.0434,-0.0428,-0.0414,-0.0403,-0.0391,-0.0402,-0.0395,-0.0377,-0.0364,-0.0343,-0.0372,-0.0334,-0.0333,-0.0329,-0.0284,-0.0203,-0.0154,-0.0304,-0.0303,-0.0303,0,-0.0399,-0.0414,-0.0426,-0.0433,-0.0434,-0.0433,-0.0434,-0.0428,-0.0407,-0.0399,-0.0381,-0.0371,-0.0346,-0.0354,-0.0313,-0.0331,-0.0319,-0.0306,-0.0304,-0.0295,-0.031,-0.0203,-0.0137,-0.008,-0.0293,-0.0294,-0.0295,0,-0.04,-0.0406,-0.0425,-0.0431,-0.044,-0.0439,-0.0436,-0.0423,-0.0408,-0.0384,-0.0365,-0.034,-0.0319,-0.0296,-0.0277,-0.0291,-0.0226,-0.0244,-0.0221,-0.022,-0.0144,-0.0139,-0.0019,-0.0207,-0.0207,-0.0207,-0.0208,0,-0.0398,-0.0405,-0.0426,-0.0437,-0.0441,-0.0442,-0.043,-0.042,-0.039,-0.0363,-0.0355,-0.0323,-0.0301,-0.0266,-0.0257,-0.0214,-0.0209,-0.0204,-0.02,-0.0137,-0.0131,-0.0074,-0.0071,-0.0206,-0.0206,-0.0206,-0.0207,0,-0.0392,-0.0412,-0.0422,-0.0438,-0.0444,-0.0441,-0.0422,-0.0404,-0.0382,-0.0345,-0.0333,-0.0295,-0.025,-0.0227,-0.0183,-0.0182,-0.0073,-0.0138,-0.0069,-0.0058,0.0005,0.0005,0.0145,0.0288,-0.01,-0.01,-0.0099,0,-0.0391,-0.0406,-0.0424,-0.0429,-0.0435,-0.0433,-0.0427,-0.0405,-0.0379,-0.0326,-0.0302,-0.0248,-0.0204,-0.0137,-0.0104,-0.0066,-0.0012,0.0005,-0.0011,0.0038,0.0041,0.0071,0.0186,0.01,0.0102,0.0104,0.0105,0,-0.0387,-0.0395,-0.0407,-0.042,-0.042,-0.0413,-0.0398,-0.038,-0.0346,-0.0308,-0.025,-0.0207,-0.0128,-0.0038,0.0007,0.0031,0.0121,0.004,0.009,0.0213,0.0257,0.0387,0.0027,0.0121,0.0119,0.0118,0.0117,0.0117,-0.037,-0.0374,-0.0391,-0.0401,-0.0403,-0.0389,-0.0376,-0.035,-0.0308,-0.0245,-0.0207,-0.0127,0.0005,0.0092,0.0123,0.0243,0.0239,0.0274,0.0271,0.0298,0.0443,0.0106,0.0196,0.0195,0.0194,0.0193,0.0193,0,-0.0337,-0.0357,-0.037,-0.0376,-0.0372,-0.0376,-0.0356,-0.0335,-0.029,-0.0219,-0.0155,0.0013,0.0163,0.0267,0.0413,0.0468,0.0564,0.0502,0.0583,0.0695,0.04,0.0416,0.0558,0.0558,0.0558,0.0558,0.0558,0.0557,-0.0315,-0.0331,-0.035,-0.035,-0.0355,-0.0342,-0.0329,-0.0299,-0.0252,-0.0147,-0.0048,0.0025,0.0174,0.0416,0.0597,0.0645,0.0813,0.0779,0.0866,0.0632,0.0611,0.0591,0.0609,0.0789,0.079,0.1256,0.1259,0.1262]}],[{"header":{"parameterUnit":"m.s-1","parameterCategory":2,"la1":30.2991,"la2":30.254,"lo1":-89.0895,"lo2":-89.0444,"dy":0.0017,"dx":0.0017,"nx":28,"ny":28,"refTime":"2025-07-14T09:00:00:Z","depth":"2","parameterNumber":2,"parameterNumberName":"U-component_of_CURRENTS"},"data":[0,0,0,0,0,0,0,0,0,0,0,0,0,0,0,0,0,0,0,0,0,0,0,0,0,0,0,0,0,0,0,0,0,0,0,0,0,0,0,0,0,0,0,0,0,0,0,0,0,0,0,0,0,0,0,0,0,0,-0.0505,-0.0505,0,-0.0479,-0.0478,-0.0478,-0.0426,-0.0424,-0.0423,-0.0422,-0.0387,-0.0387,-0.0387,0,0,0,0,0,0,0,0,0,0,0,0,0,-0.0489,-0.049,-0.0506,-0.0505,-0.0504,-0.0479,-0.0478,-0.0478,-0.0426,-0.0424,-0.0423,-0.0422,-0.0387,-0.0387,-0.0387,0,0,0,0,0,0,0,0,0,0,0,0,0,-0.0484,-0.049,-0.0506,-0.0474,-0.0471,-0.0479,-0.0478,-0.0478,-0.0426,-0.0424,-0.0423,-0.0421,-0.0387,-0.0387,-0.0387,-0.0426,0,0,-0.0388,-0.0389,0,0,0,0,0,0,0,0,-0.0485,-0.0485,-0.0479,-0.0476,-0.0472,-0.0452,-0.046,-0.046,-0.0427,-0.0445,-0.0422,-0.042,-0.0408,-0.0407,-0.0408,-0.0424,-0.0423,-0.0388,-0.0389,-0.0389,-0.0389,0,0,0,0,0,0,0,-0.0485,-0.0486,-0.0497,-0.0479,-0.0474,-0.0453,-0.0451,-0.0459,-0.0439,-0.0443,-0.0439,-0.0434,-0.0406,-0.0408,-0.0407,-0.0422,-0.0388,-0.0389,-0.0389,-0.0389,-0.0373,-0.0373,0,0,0,0,0,0,-0.0488,-0.0487,-0.0498,-0.0496,-0.0472,-0.0455,-0.0452,-0.0462,-0.0438,-0.0433,-0.0435,-0.0431,-0.0409,-0.0407,-0.0406,-0.0349,-0.0389,-0.0389,-0.0389,-0.0374,-0.0373,-0.0373,0,0,0,0,0,0,-0.0488,-0.049,-0.0499,-0.0488,-0.0487,-0.0457,-0.0468,-0.0462,-0.0423,-0.0432,-0.0426,-0.0396,-0.0407,-0.0405,-0.0382,-0.0351,-0.0389,-0.0389,-0.0375,-0.0374,-0.0373,-0.0301,0,0,0,0,0,0,-0.0488,-0.0491,-0.0484,-0.0489,-0.0488,-0.0472,-0.0469,-0.0463,-0.0424,-0.0417,-0.0398,-0.0395,-0.0406,-0.0381,-0.0382,-0.0352,-0.039,-0.0375,-0.0374,-0.0373,-0.0304,-0.0298,-0.0292,0,0,0,0,0,-0.0488,-0.0488,-0.0485,-0.0485,-0.0486,-0.0471,-0.0468,-0.0441,-0.0423,-0.04,-0.039,-0.0393,-0.0375,-0.0381,-0.0382,-0.0352,-0.0376,-0.0375,-0.0373,-0.0307,-0.0299,-0.0292,0,0,0,0,0,0,-0.0457,-0.0483,-0.0479,-0.048,-0.0462,-0.046,-0.0426,-0.0421,-0.0397,-0.0362,-0.0388,-0.0385,-0.0353,-0.0369,-0.0375,-0.0346,-0.0375,-0.0374,-0.0324,-0.0317,-0.0311,-0.0303,-0.039,0,0,0,0,0,-0.0456,-0.0474,-0.0471,-0.0467,-0.0444,-0.043,-0.0414,-0.0387,-0.0373,-0.0357,-0.0362,-0.0356,-0.0359,-0.0347,-0.035,-0.0336,-0.0342,-0.0318,-0.0312,-0.0307,-0.0302,-0.0294,-0.0286,-0.0368,-0.0368,-0.0368,0,0,-0.0442,-0.0457,-0.0463,-0.0462,-0.0435,-0.0418,-0.0413,-0.0354,-0.0348,-0.0359,-0.0338,-0.0331,-0.0351,-0.0331,-0.0318,-0.0332,-0.0284,-0.0305,-0.03,-0.0298,-0.0292,-0.0283,-0.0276,-0.0367,-0.0368,-0.0368,0,0,-0.0393,-0.0423,-0.0392,-0.0399,-0.0352,-0.0362,-0.0338,-0.0311,-0.0292,-0.0276,-0.0283,-0.0258,-0.0269,-0.0275,-0.0283,-0.025,-0.0253,-0.0243,-0.0201,-0.0193,-0.0186,-0.018,-0.0161,-0.0153,-0.0238,-0.0238,-0.0238,0,-0.0358,-0.0354,-0.0374,-0.0349,-0.0363,-0.0338,-0.0307,-0.0299,-0.0276,-0.0263,-0.025,-0.0245,-0.0249,-0.0242,-0.0223,-0.0234,-0.0225,-0.0224,-0.0184,-0.0178,-0.0173,-0.0155,-0.0148,-0.0234,-0.0235,-0.0235,-0.0236,0,-0.0314,-0.0292,-0.027,-0.0268,-0.0281,-0.0248,-0.0258,-0.0234,-0.0217,-0.0214,-0.0176,-0.0177,-0.0172,-0.0168,-0.0182,-0.0148,-0.015,-0.0176,-0.0198,-0.016,-0.0144,-0.0138,-0.0229,-0.0231,-0.0232,-0.0233,0,0,-0.0269,-0.0241,-0.0236,-0.0226,-0.0245,-0.0254,-0.0238,-0.0228,-0.0206,-0.0171,-0.0154,-0.0137,-0.0105,-0.0113,-0.0115,-0.0102,-0.0048,-0.011,-0.0111,-0.0082,-0.0009,0.0005,0.0013,-0.0058,-0.0057,-0.0056,-0.0005,0,-0.0208,-0.0179,-0.0192,-0.0176,-0.0161,-0.0189,-0.0204,-0.0198,-0.0179,-0.0157,-0.0125,-0.0098,-0.0098,-0.0063,-0.0051,-0.0053,-0.0031,-0.0059,-0.0057,-0.0057,-0.0042,0.0021,-0.009,-0.0052,0.0001,0.0002,0.0002,0,-0.0126,-0.016,-0.0127,-0.0148,-0.0143,-0.0136,-0.0174,-0.0175,-0.0143,-0.0105,-0.0055,-0.0044,-0.0002,-0.0011,0.0022,0.0012,0.0016,0.0011,0.0012,0.0003,-0.0032,-0.0086,-0.0044,0.0012,0.0011,0.001,0.001,0,-0.0106,-0.0085,-0.0081,-0.0107,-0.0143,-0.0118,-0.0132,-0.0129,-0.0087,-0.0049,-0.0005,0.0025,0.0073,0.0073,0.0087,0.0062,0.0118,0.0069,0.0083,0.0084,-0.0023,-0.0033,0.0092,0.0092,0.0092,0.0091,0.0091,0,-0.0038,-0.0022,-0.0054,-0.0081,-0.0073,-0.0104,-0.0043,-0.0048,0.0017,0.0064,0.0044,0.0089,0.0101,0.0126,0.0113,0.0142,0.0145,0.0112,0.0105,0.0001,-0.0007,0.0027,0.0018,0.0093,0.0093,0.0093,0.0092,0,0.0096,0.0048,0.0065,-0.0003,-0.0029,-0.0,0.0051,0.0093,0.0121,0.0185,0.0209,0.0202,0.0216,0.0216,0.0228,0.0195,0.0197,0.0202,0.0095,0.0076,0.0145,0.0139,0.0209,0.0211,0.0211,0.0212,0.0213,0,0.0152,0.0174,0.013,0.0113,0.0122,0.0145,0.0149,0.0175,0.0226,0.0239,0.0261,0.0291,0.0266,0.0288,0.0276,0.0273,0.0266,0.0154,0.0076,0.0174,0.016,0.0153,0.0147,-0.0038,-0.0039,-0.004,-0.0041,0,0.022,0.0263,0.0236,0.0236,0.0238,0.0276,0.0294,0.0333,0.0332,0.0358,0.034,0.0308,0.0296,0.0225,0.0241,0.021,0.0142,0.0131,0.0261,-0.004,-0.0052,-0.0068,-0.0068,-0.0052,-0.0051,-0.005,-0.0049,-0.0049,0.0259,0.0328,0.031,0.0332,0.0331,0.0376,0.0385,0.038,0.0409,0.0351,0.037,0.025,0.0083,0.0056,0.008,0.0144,0.0148,0.0041,0.0041,0.0043,0.0016,0.0007,0.0014,0.0015,0.0016,0.0017,0.0018,0,0.032,0.038,0.0375,0.0375,0.0404,0.0439,0.0427,0.04,0.0351,0.0294,0.0266,0.0043,-0.0046,-0.0092,-0.0015,-0.002,-0.0042,-0.0041,-0.0118,-0.0111,-0.0103,-0.0139,-0.0181,-0.0181,-0.018,-0.018,0,0,0.0322,0.0368,0.0383,0.0386,0.0432,0.0453,0.0449,0.0373,0.0298,0.0155,0.0057,-0.0081,-0.0181,-0.0236,-0.0244,-0.016,-0.0118,-0.0159,-0.0021,-0.0109,-0.0099,-0.0102,-0.0155,0,0,0,0,0]},{"header":{"parameterUnit":"m.s-1","parameterCategory":2,"la1":30.2991,"la2":30.254,"lo1":-89.0895,"lo2":-89.0444,"dy":0.0017,"dx":0.0017,"nx":28,"ny":28,"refTime":"2025-07-14T09:00:00:Z","depth":"2","parameterNumber":3,"parameterNumberName":"V-component_of_CURRENTS"},"data":[0,0,0,0,0,0,0,0,0,0,0,0,0,0,0,0,0,0,0,0,0,0,0,0,0,0,0,0,0,0,0,0,0,0,0,0,0,0,0,0,0,0,0,0,0,0,0,0,0,0,0,0,0,0,0,0,0,0,0.0361,0.0361,0,0.0336,0.0335,0.0335,0.0303,0.0303,0.0303,0.0303,0.0178,0.0175,0.0172,0,0,0,0,0,0,0,0,0,0,0,0,0,0.0367,0.0367,0.0361,0.0361,0.0361,0.0336,0.0335,0.0334,0.0303,0.0303,0.0303,0.0303,0.0179,0.0176,0.0172,0,0,0,0,0,0,0,0,0,0,0,0,0,0.0353,0.0367,0.0362,0.0345,0.0343,0.0336,0.0335,0.0334,0.0304,0.0303,0.0303,0.0302,0.018,0.0176,0.0171,0.0151,0,0,0.0157,0.0155,0,0,0,0,0,0,0,0,0.0354,0.0352,0.0347,0.0346,0.0344,0.0324,0.0291,0.0269,0.0304,0.0316,0.0303,0.0302,0.022,0.0212,0.0206,0.0145,0.0139,0.0157,0.0154,0.0152,0.0151,0,0,0,0,0,0,0,0.0355,0.0353,0.0349,0.0347,0.0345,0.0333,0.033,0.0287,0.0267,0.0315,0.0313,0.0314,0.0218,0.0211,0.0202,0.0137,0.0157,0.0153,0.015,0.0148,-0.0001,-0.0002,0,0,0,0,0,0,0.0364,0.0354,0.035,0.0348,0.0351,0.0333,0.033,0.0329,0.0269,0.0261,0.0315,0.0313,0.0219,0.0208,0.0198,0.0142,0.0152,0.0148,0.0145,0.0,-0.0001,-0.0002,0,0,0,0,0,0,0.0364,0.0364,0.0351,0.0353,0.035,0.0334,0.0333,0.0329,0.0307,0.0271,0.026,0.0296,0.0218,0.0204,0.0148,0.0138,0.0146,0.0141,0.0002,0.0,-0.0002,0.0048,0,0,0,0,0,0,0.0365,0.0364,0.0358,0.0353,0.0351,0.0341,0.0333,0.0329,0.0311,0.0308,0.0251,0.024,0.0216,0.0155,0.0143,0.0132,0.0138,0.0003,0.0001,-0.0001,0.0048,0.0049,0.0049,0,0,0,0,0,0.0365,0.0358,0.0358,0.0357,0.0346,0.0341,0.0338,0.0323,0.031,0.0301,0.026,0.0241,0.0132,0.0151,0.0137,0.0124,0.0004,0.0002,-0.0001,0.0048,0.0049,0.0049,0,0,0,0,0,0,0.0341,0.0354,0.0354,0.0347,0.0344,0.0336,0.0316,0.0315,0.0278,0.0253,0.0228,0.0214,0.0164,0.0128,0.015,0.0071,0.0064,0.0059,0.0106,0.0106,0.0106,0.0133,0.0134,0,0,0,0,0,0.0339,0.0343,0.0348,0.0338,0.033,0.0321,0.0313,0.0302,0.0275,0.0258,0.0233,0.0185,0.0144,0.0113,0.0074,0.0027,0.0022,0.0006,0.0007,0.0008,0.0018,-0.0003,-0.0003,-0.0011,-0.0011,-0.0011,0,0,0.0326,0.0333,0.0332,0.0335,0.0319,0.0317,0.0313,0.0284,0.0284,0.0246,0.0221,0.0185,0.0132,0.009,0.0062,0.0057,0.0008,0.0004,0.0006,0.0016,-0.0006,-0.0004,-0.0003,-0.0013,-0.0013,-0.0012,0,0,0.029,0.0301,0.0284,0.0299,0.0285,0.0287,0.028,0.0269,0.0258,0.0235,0.0207,0.0169,0.011,0.0083,0.0057,0.0028,0.0015,0.0003,0.0023,0.0002,0.0003,0.0005,0.0018,0.0019,-0.0002,-0.0002,-0.0001,0,0.0264,0.0262,0.0275,0.0275,0.0291,0.0277,0.0272,0.0263,0.0242,0.0238,0.0224,0.0159,0.0113,0.0073,0.0065,0.0033,0.0028,0.0033,0.0006,0.0007,0.0008,0.002,0.0022,0.0001,0.0,0.0,-0.0,0,0.0244,0.0235,0.0223,0.0234,0.0254,0.024,0.0255,0.0249,0.0239,0.0242,0.0208,0.016,0.0126,0.01,0.0073,0.0047,0.0047,0.0019,0.0018,0.0013,0.0025,0.0026,0.0004,0.0003,0.0002,0.0002,0,0,0.0189,0.0203,0.0198,0.0211,0.0238,0.0253,0.0252,0.0258,0.0262,0.0239,0.0246,0.0183,0.0168,0.0136,0.0096,0.0075,0.0078,0.0049,0.0047,0.0085,0.0058,0.0118,0.0125,0.0044,0.0044,0.0044,0.0074,0,0.0153,0.0154,0.018,0.0193,0.0197,0.0232,0.0252,0.0267,0.0265,0.027,0.0227,0.0203,0.0176,0.015,0.0131,0.0084,0.0079,0.0074,0.0037,0.0037,0.0109,0.0127,0.0117,0.0147,0.0074,0.0075,0.0075,0,0.012,0.0138,0.0136,0.0192,0.0198,0.0207,0.0261,0.0275,0.0281,0.0274,0.0256,0.0241,0.0208,0.0178,0.0135,0.0133,0.0105,0.0078,0.0078,0.0119,0.0099,0.0133,0.0151,0.0076,0.0076,0.0076,0.0076,0,0.0088,0.0109,0.0112,0.014,0.0194,0.0196,0.0221,0.0254,0.0252,0.0261,0.0263,0.0247,0.0214,0.0188,0.0151,0.0137,0.0116,0.0084,0.0123,0.0127,0.0106,0.0109,0.0064,0.0064,0.0064,0.0064,0.0064,0,0.0047,0.0047,0.0089,0.0098,0.0121,0.0177,0.0169,0.0205,0.0207,0.0213,0.0246,0.0249,0.021,0.0205,0.0174,0.017,0.0135,0.0147,0.014,0.0124,0.0129,0.0046,0.0043,0.0065,0.0065,0.0064,0.0064,0,-0.0039,-0.0006,0.0,0.0059,0.0084,0.009,0.0106,0.011,0.0138,0.0145,0.0146,0.0212,0.0233,0.0225,0.0185,0.0195,0.0181,0.0182,0.0193,0.0188,0.0206,0.0205,0.0245,0.0247,0.0249,0.0251,0.0252,0,-0.0079,-0.0089,-0.0044,-0.0027,-0.0027,-0.0014,0.0004,0.0042,0.0047,0.0131,0.0144,0.0193,0.0254,0.0274,0.0289,0.0296,0.0222,0.0278,0.0253,0.0236,0.0225,0.0221,0.0217,0.0242,0.0243,0.0244,0.0245,0,-0.0138,-0.0149,-0.0125,-0.0116,-0.01,-0.0089,-0.0065,-0.0068,0.0003,0.0041,0.0136,0.0204,0.0297,0.0332,0.0365,0.0363,0.0286,0.0303,0.0259,0.0211,0.0239,0.0226,0.0221,0.0254,0.0253,0.0253,0.0252,0.0252,-0.0167,-0.019,-0.0169,-0.0161,-0.0141,-0.0137,-0.0136,-0.0085,-0.0045,0.0056,0.0121,0.0231,0.0286,0.0367,0.0381,0.0396,0.0403,0.0353,0.0347,0.034,0.0347,0.0379,0.0423,0.0423,0.0423,0.0423,0.0423,0,-0.0188,-0.0208,-0.02,-0.0176,-0.0176,-0.0181,-0.0137,-0.0122,-0.0048,0.0045,0.0134,0.0202,0.0288,0.0319,0.0378,0.0432,0.0411,0.0395,0.0322,0.0315,0.0309,0.031,0.0378,0.0378,0.0378,0.0377,0,0,-0.0191,-0.0208,-0.0213,-0.0188,-0.0196,-0.02,-0.0188,-0.0135,-0.0069,0.0027,0.0094,0.0214,0.0283,0.028,0.0328,0.0337,0.0313,0.0347,0.0385,0.0287,0.0279,0.0296,0.0294,0,0,0,0,0]}],[{"header":{"parameterUnit":"m.s-1","parameterCategory":2,"la1":30.2991,"la2":30.254,"lo1":-89.0895,"lo2":-89.0444,"dy":0.0017,"dx":0.0017,"nx":28,"ny":28,"refTime":"2025-07-14T09:00:00:Z","depth":"4","parameterNumber":2,"parameterNumberName":"U-component_of_CURRENTS"},"data":[0,0,0,0,0,0,0,0,0,0,0,0,0,0,0,0,0,0,0,0,0,0,0,0,0,0,0,0,0,0,0,0,0,0,0,0,0,0,0,0,0,0,0,0,0,0,0,0,0,0,0,0,0,0,0,0,0,0,-0.0931,-0.0932,0,-0.0971,-0.0971,-0.0971,-0.0983,-0.0983,-0.0983,-0.0983,-0.1018,-0.1019,-0.1019,0,0,0,0,0,0,0,0,0,0,0,0,0,-0.0845,-0.0846,-0.0931,-0.0932,-0.0933,-0.0971,-0.0971,-0.0971,-0.0983,-0.0983,-0.0983,-0.0983,-0.1017,-0.1018,-0.1019,0,0,0,0,0,0,0,0,0,0,0,0,0,-0.088,-0.0847,-0.0931,-0.0945,-0.0947,-0.0971,-0.0971,-0.0971,-0.0982,-0.0983,-0.0983,-0.0983,-0.1017,-0.1018,-0.102,-0.1025,0,0,-0.1024,-0.1024,0,0,0,0,0,0,0,0,-0.0878,-0.0883,-0.0942,-0.0944,-0.0947,-0.0975,-0.0954,-0.099,-0.0982,-0.0966,-0.0983,-0.0983,-0.1005,-0.1007,-0.101,-0.1027,-0.1028,-0.1024,-0.1024,-0.1025,-0.1025,0,0,0,0,0,0,0,-0.0876,-0.0881,-0.0944,-0.0943,-0.0946,-0.0943,-0.0948,-0.096,-0.0982,-0.0967,-0.0969,-0.0978,-0.1006,-0.1009,-0.1011,-0.1029,-0.1024,-0.1025,-0.1026,-0.1026,-0.1106,-0.1107,0,0,0,0,0,0,-0.0879,-0.0879,-0.0942,-0.0945,-0.0916,-0.0945,-0.095,-0.0963,-0.0982,-0.0986,-0.0978,-0.0979,-0.1006,-0.1009,-0.1012,-0.1089,-0.1025,-0.1026,-0.1027,-0.1105,-0.1106,-0.1108,0,0,0,0,0,0,-0.0877,-0.0884,-0.0941,-0.0915,-0.0923,-0.0947,-0.0961,-0.0964,-0.0986,-0.0991,-0.0994,-0.1,-0.1007,-0.101,-0.1035,-0.1088,-0.1027,-0.1028,-0.1103,-0.1105,-0.1107,-0.1199,0,0,0,0,0,0,-0.0874,-0.0883,-0.0897,-0.0916,-0.0925,-0.0968,-0.0961,-0.0965,-0.0992,-0.0994,-0.101,-0.1012,-0.1007,-0.1033,-0.1037,-0.1089,-0.1029,-0.1101,-0.1104,-0.1106,-0.1194,-0.1204,-0.1212,0,0,0,0,0,-0.0871,-0.0887,-0.0897,-0.0905,-0.0942,-0.097,-0.0974,-0.0988,-0.0994,-0.1008,-0.1016,-0.1013,-0.1052,-0.1035,-0.1039,-0.1093,-0.11,-0.1103,-0.1106,-0.119,-0.1202,-0.1212,0,0,0,0,0,0,-0.0857,-0.089,-0.0902,-0.0928,-0.0955,-0.0973,-0.0992,-0.1002,-0.102,-0.1026,-0.1024,-0.1027,-0.1066,-0.1062,-0.1044,-0.1121,-0.1079,-0.1082,-0.1141,-0.1152,-0.1161,-0.1165,-0.103,0,0,0,0,0,-0.0861,-0.0884,-0.0914,-0.0938,-0.0955,-0.0978,-0.0994,-0.1007,-0.1024,-0.1033,-0.1044,-0.1059,-0.1078,-0.1101,-0.1104,-0.1151,-0.115,-0.1188,-0.1197,-0.1205,-0.121,-0.128,-0.1297,-0.1118,-0.1118,-0.1118,0,0,-0.0863,-0.0886,-0.0899,-0.0937,-0.0961,-0.0992,-0.0988,-0.1022,-0.1049,-0.1034,-0.1074,-0.1083,-0.1092,-0.1137,-0.1157,-0.1147,-0.1248,-0.1209,-0.1216,-0.1216,-0.1285,-0.1303,-0.1319,-0.112,-0.1119,-0.1119,0,0,-0.0875,-0.0902,-0.0925,-0.0951,-0.0993,-0.1012,-0.1028,-0.1061,-0.1078,-0.1112,-0.1113,-0.115,-0.1177,-0.1202,-0.1216,-0.1276,-0.1281,-0.1292,-0.1362,-0.1431,-0.1447,-0.1461,-0.1451,-0.1463,-0.1313,-0.1314,-0.1314,0,-0.0878,-0.091,-0.0936,-0.0966,-0.0992,-0.1026,-0.1057,-0.1084,-0.1119,-0.1136,-0.1134,-0.12,-0.1206,-0.1278,-0.1306,-0.1299,-0.132,-0.1324,-0.1445,-0.1459,-0.1472,-0.1459,-0.1471,-0.1318,-0.1318,-0.1317,-0.1317,0,-0.0901,-0.0936,-0.0956,-0.1007,-0.1037,-0.1072,-0.1113,-0.1148,-0.1175,-0.1195,-0.126,-0.1283,-0.1332,-0.1349,-0.135,-0.1458,-0.1433,-0.1438,-0.1423,-0.1496,-0.1476,-0.1488,-0.1325,-0.1323,-0.1322,-0.1321,0,0,-0.0879,-0.0957,-0.0964,-0.0996,-0.1062,-0.1087,-0.1144,-0.1196,-0.123,-0.1285,-0.1348,-0.14,-0.1433,-0.1452,-0.1481,-0.1548,-0.1644,-0.1553,-0.1554,-0.1549,-0.1764,-0.1533,-0.1522,-0.17,-0.1703,-0.1706,-0.1701,0,-0.0892,-0.0947,-0.0985,-0.1048,-0.1083,-0.1135,-0.1181,-0.1233,-0.1272,-0.1341,-0.1405,-0.1481,-0.1471,-0.1537,-0.1598,-0.1651,-0.1686,-0.1641,-0.1687,-0.1686,-0.148,-0.1532,-0.1716,-0.171,-0.1712,-0.1714,-0.1716,0,-0.0893,-0.0934,-0.0991,-0.107,-0.1091,-0.1138,-0.1214,-0.126,-0.1355,-0.1394,-0.1489,-0.1554,-0.1687,-0.1668,-0.1783,-0.1772,-0.1769,-0.1783,-0.1784,-0.1546,-0.1478,-0.1628,-0.1736,-0.1734,-0.1733,-0.1731,-0.173,0,-0.0848,-0.0934,-0.0981,-0.1009,-0.1104,-0.1146,-0.1202,-0.1276,-0.1327,-0.1467,-0.1529,-0.1667,-0.1782,-0.1833,-0.1848,-0.1866,-0.1922,-0.1947,-0.1708,-0.1689,-0.1859,-0.1845,-0.1991,-0.1991,-0.1991,-0.1991,-0.1991,0,-0.083,-0.087,-0.0972,-0.0997,-0.1056,-0.1135,-0.12,-0.1263,-0.1384,-0.1413,-0.1577,-0.1596,-0.1847,-0.1895,-0.1882,-0.1799,-0.1947,-0.1711,-0.1686,-0.1889,-0.1879,-0.1865,-0.185,-0.1991,-0.1991,-0.1991,-0.1991,0,-0.077,-0.0837,-0.0895,-0.1002,-0.1037,-0.1081,-0.1207,-0.1242,-0.1369,-0.1428,-0.1507,-0.1651,-0.1673,-0.1791,-0.1871,-0.1826,-0.1777,-0.1685,-0.1839,-0.1822,-0.1493,-0.1483,-0.1483,-0.1476,-0.1469,-0.1463,-0.1459,0,-0.0743,-0.077,-0.0878,-0.0904,-0.0958,-0.104,-0.1079,-0.1221,-0.1242,-0.1345,-0.1342,-0.1467,-0.1509,-0.1447,-0.155,-0.1544,-0.1503,-0.1532,-0.1571,-0.1472,-0.1449,-0.1449,-0.1449,-0.1448,-0.1446,-0.1444,-0.1443,0,-0.0691,-0.0737,-0.0784,-0.0828,-0.0879,-0.0922,-0.0983,-0.1014,-0.112,-0.1253,-0.1182,-0.1216,-0.1206,-0.1267,-0.13,-0.1256,-0.1579,-0.1463,-0.1479,-0.1515,-0.1429,-0.1412,-0.142,-0.142,-0.1423,-0.1425,-0.1426,0,-0.065,-0.0665,-0.0717,-0.075,-0.078,-0.077,-0.0838,-0.0847,-0.0909,-0.1042,-0.0951,-0.0997,-0.1114,-0.1094,-0.1043,-0.108,-0.1087,-0.114,-0.1173,-0.12,-0.1111,-0.096,-0.0781,0,0,0,0,0,-0.061,-0.0617,-0.0631,-0.0637,-0.0643,-0.0669,-0.0738,-0.0806,-0.0902,-0.0822,-0.0915,-0.0846,-0.0842,-0.0836,-0.082,-0.0907,-0.11,-0.0886,-0.1181,-0.1291,-0.1318,-0.124,0,0,0,0,0,0,-0.0582,-0.0604,-0.0604,-0.0515,-0.0495,-0.0492,-0.0545,-0.0624,-0.059,-0.0696,-0.068,-0.078,-0.077,-0.0822,-0.0786,-0.08,-0.0972,-0.0927,-0.0925,-0.1276,-0.13,-0.1322,-0.1251,0,0,0,0,0]},{"header":{"parameterUnit":"m.s-1","parameterCategory":2,"la1":30.2991,"la2":30.254,"lo1":-89.0895,"lo2":-89.0444,"dy":0.0017,"dx":0.0017,"nx":28,"ny":28,"refTime":"2025-07-14T09:00:00:Z","depth":"4","parameterNumber":3,"parameterNumberName":"V-component_of_CURRENTS"},"data":[0,0,0,0,0,0,0,0,0,0,0,0,0,0,0,0,0,0,0,0,0,0,0,0,0,0,0,0,0,0,0,0,0,0,0,0,0,0,0,0,0,0,0,0,0,0,0,0,0,0,0,0,0,0,0,0,0,0,0.02,0.02,0,0.0235,0.0236,0.0236,0.0266,0.0266,0.0267,0.0267,0.0335,0.0337,0.0338,0,0,0,0,0,0,0,0,0,0,0,0,0,0.0185,0.0185,0.02,0.02,0.0201,0.0235,0.0236,0.0236,0.0266,0.0266,0.0267,0.0267,0.0335,0.0336,0.0338,0,0,0,0,0,0,0,0,0,0,0,0,0,0.0203,0.0185,0.02,0.022,0.0222,0.0235,0.0236,0.0236,0.0266,0.0266,0.0267,0.0267,0.0334,0.0336,0.0338,0.0342,0,0,0.0345,0.0346,0,0,0,0,0,0,0,0,0.0202,0.0203,0.0216,0.0218,0.0221,0.0247,0.0256,0.0273,0.0266,0.0249,0.0267,0.0267,0.0308,0.0313,0.0317,0.0345,0.0348,0.0345,0.0347,0.0348,0.0348,0,0,0,0,0,0,0,0.0201,0.0202,0.0213,0.0217,0.0219,0.0237,0.0239,0.0259,0.0276,0.025,0.0253,0.0257,0.031,0.0315,0.0319,0.0349,0.0345,0.0347,0.0349,0.035,0.0397,0.0397,0,0,0,0,0,0,0.0194,0.0201,0.0212,0.0215,0.0213,0.0236,0.0239,0.0238,0.0275,0.0281,0.0256,0.0258,0.0311,0.0317,0.0322,0.0332,0.0348,0.035,0.0351,0.0398,0.0397,0.0397,0,0,0,0,0,0,0.0194,0.0195,0.0211,0.0209,0.0212,0.0236,0.0234,0.0238,0.0248,0.0279,0.0286,0.0262,0.0312,0.0319,0.0338,0.0335,0.0351,0.0353,0.0398,0.0398,0.0397,0.0351,0,0,0,0,0,0,0.0193,0.0194,0.0191,0.0208,0.0212,0.0216,0.0234,0.0239,0.025,0.0252,0.0286,0.0293,0.0313,0.0335,0.0341,0.0339,0.0355,0.0398,0.0398,0.0397,0.0352,0.0349,0.0346,0,0,0,0,0,0.0192,0.0182,0.019,0.0192,0.0206,0.0216,0.0219,0.0238,0.0249,0.0249,0.0272,0.0292,0.0338,0.0336,0.0343,0.0342,0.0398,0.0398,0.0397,0.0354,0.035,0.0346,0,0,0,0,0,0,0.0176,0.0185,0.0194,0.0188,0.0201,0.0221,0.0223,0.0236,0.0254,0.0257,0.029,0.0297,0.0313,0.0334,0.0332,0.0356,0.0372,0.0373,0.0336,0.0333,0.033,0.031,0.0357,0,0,0,0,0,0.017,0.0163,0.018,0.0176,0.0181,0.0203,0.0209,0.022,0.0238,0.0247,0.027,0.0296,0.0316,0.033,0.0349,0.0363,0.0415,0.0368,0.0364,0.0362,0.0351,0.0438,0.0442,0.0397,0.0397,0.0397,0,0,0.0163,0.0167,0.0164,0.0172,0.0184,0.0178,0.0208,0.0213,0.0207,0.0252,0.0253,0.0284,0.0317,0.0329,0.0339,0.0348,0.0404,0.0361,0.0359,0.0349,0.0439,0.0443,0.0447,0.0397,0.0397,0.0397,0,0,0.0139,0.0149,0.0135,0.0139,0.0151,0.0162,0.0162,0.0181,0.0191,0.0198,0.0228,0.0253,0.0285,0.0305,0.0321,0.0313,0.0383,0.0327,0.0298,0.0383,0.0388,0.0393,0.0476,0.0488,0.0328,0.0328,0.0328,0,0.0131,0.0114,0.0134,0.012,0.0115,0.0151,0.0131,0.0145,0.0166,0.0165,0.0192,0.0233,0.0269,0.028,0.0286,0.0305,0.0372,0.0308,0.038,0.0386,0.0392,0.0476,0.049,0.0326,0.0326,0.0326,0.0327,0,0.0096,0.0082,0.0075,0.0065,0.0063,0.0055,0.0071,0.0072,0.0092,0.0105,0.0122,0.0175,0.0201,0.0222,0.0257,0.0303,0.0345,0.0366,0.0389,0.0393,0.0482,0.0498,0.0323,0.0324,0.0324,0.0325,0,0,0.0073,0.0053,0.0049,0.0028,0.0031,0.002,0.0009,0.0004,-0.0018,0.0029,0.0011,0.0078,0.0117,0.0139,0.0191,0.0266,0.0379,0.0338,0.0344,0.0419,0.0584,0.0386,0.0385,0.0429,0.0431,0.0432,0.0634,0,0.004,-0.0004,-0.0006,-0.0053,-0.0073,-0.0062,-0.0083,-0.0084,-0.0073,-0.0081,-0.0014,0.0001,0.0084,0.0105,0.0194,0.0335,0.0418,0.0323,0.0569,0.0576,0.0398,0.0394,0.0439,0.0646,0.065,0.0653,0.0655,0,0.0004,-0.0022,-0.0071,-0.0123,-0.0133,-0.0157,-0.0198,-0.021,-0.0207,-0.0196,-0.016,-0.0106,0.0007,0.0068,0.0328,0.0275,0.0423,0.0533,0.0544,0.0379,0.0404,0.064,0.0684,0.0682,0.068,0.0678,0.0676,0,-0.0025,-0.0075,-0.0119,-0.0133,-0.0176,-0.0206,-0.0228,-0.0246,-0.0272,-0.0259,-0.0275,-0.0144,-0.0066,0.0137,0.0334,0.0378,0.0587,0.0682,0.0635,0.0626,0.0771,0.0764,0.0845,0.0845,0.0844,0.0844,0.0843,0,-0.0063,-0.0102,-0.0138,-0.0164,-0.0236,-0.0246,-0.0318,-0.0332,-0.0357,-0.0388,-0.0322,-0.0319,-0.0035,0.0091,0.0304,0.0473,0.0578,0.0616,0.065,0.0748,0.0735,0.0784,0.0774,0.0851,0.085,0.0848,0.0847,0,-0.0092,-0.0109,-0.0169,-0.0224,-0.025,-0.0298,-0.0376,-0.0425,-0.0437,-0.0476,-0.0466,-0.0383,-0.0213,-0.0024,0.0292,0.0412,0.0597,0.0615,0.0658,0.0694,0.062,0.0606,0.0684,0.0678,0.0673,0.0669,0.0666,0,-0.0113,-0.0139,-0.0213,-0.026,-0.029,-0.0362,-0.0416,-0.0454,-0.0487,-0.052,-0.0527,-0.0441,-0.0367,-0.0081,0.0119,0.0418,0.0445,0.0562,0.0643,0.0571,0.0599,0.0592,0.0584,0.0658,0.0657,0.0656,0.0655,0,-0.0153,-0.017,-0.0217,-0.03,-0.0366,-0.0452,-0.0512,-0.0539,-0.0564,-0.0592,-0.0553,-0.0466,-0.0348,-0.0111,0.0023,0.0255,0.0511,0.0516,0.0532,0.061,0.0541,0.0572,0.057,0.0638,0.0641,0.0642,0.0643,0,-0.018,-0.0218,-0.0266,-0.0334,-0.0425,-0.0497,-0.0538,-0.0555,-0.0583,-0.058,-0.0566,-0.0476,-0.038,-0.0205,-0.0061,0.0086,0.0211,0.0355,0.0383,0.0403,0.0211,0.0077,0.0047,0,0,0,0,0,-0.0204,-0.0234,-0.0303,-0.0376,-0.0461,-0.0499,-0.0581,-0.0604,-0.0614,-0.0577,-0.0563,-0.0466,-0.0301,-0.0246,-0.0113,-0.0127,0.0219,0.003,0.0396,0.0546,0.0565,0.0362,0,0,0,0,0,0,-0.023,-0.028,-0.0293,-0.0377,-0.0424,-0.0515,-0.0558,-0.0576,-0.0539,-0.0534,-0.0441,-0.0412,-0.0249,-0.0351,-0.0096,-0.0068,0.0187,0.01,0.0103,0.0535,0.0553,0.0568,0.0365,0,0,0,0,0]}]]